TimeEST,TemperatureF,Dew PointF,Humidity,Sea Level PressureIn,VisibilityMPH,Wind Direction,Wind SpeedMPH,Gust SpeedMPH,PrecipitationIn,Events,Conditions,WindDirDegrees,DateUTC
12:51 AM,28.9,17.1,61,29.90,10.0,SW,6.9,-,N/A,,Partly Cloudy,220,2013-01-05 05:51:00
1:51 AM,28.9,17.1,61,29.94,10.0,SW,5.8,-,N/A,,Partly Cloudy,220,2013-01-05 06:51:00
2:51 AM,28.0,17.1,63,29.96,10.0,SW,5.8,-,N/A,,Mostly Cloudy,230,2013-01-05 07:51:00
3:51 AM,30.0,19.0,64,29.97,10.0,SSW,8.1,-,N/A,,Overcast,210,2013-01-05 08:51:00
4:51 AM,30.2,17.6,60,29.98,10.0,WSW,12.7,-,N/A,,Mostly Cloudy,240,2013-01-05 09:51:00
5:51 AM,30.9,19.0,61,30.02,10.0,WSW,12.7,-,N/A,,Overcast,240,2013-01-05 10:51:00
6:51 AM,30.2,19.4,64,30.05,10.0,WSW,8.1,-,N/A,,Mostly Cloudy,240,2013-01-05 11:51:00
7:51 AM,30.9,19.0,61,30.10,10.0,WSW,9.2,-,N/A,,Scattered Clouds,240,2013-01-05 12:51:00
8:51 AM,33.1,19.9,59,30.13,10.0,WSW,9.2,-,N/A,,Partly Cloudy,240,2013-01-05 13:51:00
9:51 AM,37.4,21.2,52,30.16,10.0,West,13.8,-,N/A,,Clear,260,2013-01-05 14:51:00
10:51 AM,39.0,21.0,49,30.15,10.0,West,11.5,-,N/A,,Clear,280,2013-01-05 15:51:00
11:51 AM,41.0,21.0,45,30.15,10.0,WNW,13.8,21.9,N/A,,Partly Cloudy,300,2013-01-05 16:51:00
12:51 PM,41.0,19.9,43,30.15,10.0,WNW,16.1,23.0,N/A,,Clear,300,2013-01-05 17:51:00
1:51 PM,42.1,19.0,40,30.16,10.0,NW,12.7,-,N/A,,Partly Cloudy,320,2013-01-05 18:51:00
2:51 PM,42.1,19.9,41,30.18,10.0,WNW,6.9,-,N/A,,Scattered Clouds,290,2013-01-05 19:51:00
3:51 PM,39.9,19.9,45,30.19,10.0,West,6.9,-,N/A,,Scattered Clouds,270,2013-01-05 20:51:00
4:51 PM,37.9,19.0,47,30.21,10.0,West,8.1,-,N/A,,Scattered Clouds,280,2013-01-05 21:51:00
5:51 PM,35.1,19.0,52,30.23,10.0,West,3.5,-,N/A,,Clear,270,2013-01-05 22:51:00
6:51 PM,33.1,19.0,56,30.26,10.0,West,6.9,-,N/A,,Scattered Clouds,280,2013-01-05 23:51:00
7:51 PM,32.0,18.0,56,30.26,10.0,WNW,3.5,-,N/A,,Partly Cloudy,290,2013-01-06 00:51:00
8:51 PM,28.9,19.0,67,30.25,10.0,West,4.6,-,N/A,,Scattered Clouds,280,2013-01-06 01:51:00
9:51 PM,27.0,18.0,69,30.25,10.0,West,3.5,-,N/A,,Scattered Clouds,280,2013-01-06 02:51:00
10:51 PM,23.0,17.1,78,30.24,10.0,Calm,Calm,-,N/A,,Partly Cloudy,0,2013-01-06 03:51:00
11:51 PM,24.8,17.6,74,30.22,7.0,West,4.6,-,N/A,,Scattered Clouds,270,2013-01-06 04:51:00